User: anonymous
Location: Montauk Point State Park
(41.0718°N, 71.8593°W)
Time: 19:40:38
(UTC-04:00)
Language:

Cosmos 1844 - Orbit

View from above orbital plane
View from above orbital plane
View from above satellite
View from above satellite

Ground track
Ground track

The orbit data is extracted from the following two-line orbital elements,

1 17973U 87041A   14211.80685301 -.00000225  00000-0 -92288-4 0  7933
2 17973 070.9021 331.3606 0033639 266.0289 251.3211 14.13936104404383
Epoch (UTC): 30 July 2014 19:21:52
Eccentricity: 0.0033639
inclination: 70.9021°
perigee height: 821 km
apogee height: 870 km
right ascension of ascending node: 331.3606°
argument of perigee: 266.0289°
revolutions per day: 14.13936104
mean anomaly at epoch: 251.3211°
orbit number at epoch: 40438

The dashed part of the orbit path shows where the satellite is in the earth's shadow,  

DLR